Location: Songkhla
(7.2000°N, 100.6000°E)
Time: 15:09:45
(UTC+07:00)

Daily predictions for brighter satellites

Satellite Brightness Start Highest point End
(mag) Time Altitude Azimuth Time Altitude Azimuth Time Altitude Azimuth
ARIANE 5 R/B 3.2 18:38:27 10° SW 18:41:11 35° SSE 18:50:18 10° E
Landsat 7 3.8 18:41:18 10° SSE 18:45:57 80° ENE 18:50:35 10° N
USA 238 DEB 3.6 18:40:34 10° S 18:46:14 48° ESE 18:51:58 10° NE
USA 238 3.6 18:40:41 10° S 18:46:21 47° ESE 18:52:03 10° NE
BLOCK DM-SL R/B 2.7 18:40:36 10° WSW 18:47:06 30° SSW 18:49:29 10° SE
Delta 128 4.0 18:43:47 10° WSW 18:49:39 83° SSE 18:54:38 10° ENE
Ariane H10 3.2 18:46:38 10° W 18:49:53 89° S 19:00:58 10° E
Cosmos 1455 Rocket 3.6 18:50:16 10° SSE 18:54:10 34° E 18:58:05 10° NNE
BREEZE M DEB (TANK) 4.4 18:40:26 10° NNW 18:54:23 48° NE 18:58:41 10° ESE
Cosmos 1943 Rocket 3.3 18:50:29 10° NNE 18:54:50 24° ENE 18:59:12 10° SE
PSLV R/B 4.0 18:51:51 10° S 18:55:50 61° W 18:59:48 10° NNW
NOSS 2-2 (E) 4.1 18:51:38 10° SSW 18:57:14 71° WNW 19:01:12 10° NNE
SL-16 R/B 2.9 18:54:38 10° SSW 19:00:13 59° WNW 19:05:47 10° N
Cosmos 540 Rocket 3.4 19:01:45 10° S 19:06:47 62° ESE 19:11:49 10° NNE
SPOT 1/Viking Rocket 3.8 19:03:29 10° SSE 19:08:27 47° ENE 19:13:23 10° N
Okean 1 Rocket 4.4 19:06:20 10° SSW 19:10:26 43° W 19:14:31 10° NNW
Cosmos 1553 Rocket 4.0 19:04:28 10° S 19:10:51 76° E 19:17:14 10° N
Meteor 1-31 Rocket 3.1 19:09:01 10° SE 19:12:11 35° ENE 19:15:25 10° N
Cosmos 332 Rocket 3.7 19:15:09 10° NNW 19:19:55 86° ENE 19:24:41 10° SSE
Intelsat 5-3 Rocket 4.5 19:04:02 10° WNW 19:20:08 78° NNE 19:25:04 20° ESE
Yuri Rocket 4.0 19:17:29 10° SSW 19:20:59 25° SSE 19:22:14 22° ESE
ARIANE 5 R/B 4.4 19:04:53 10° WSW 19:21:30 43° S 19:24:42 20° SE
Cosmos 1500 3.5 19:19:14 10° NNW 19:21:33 39° W 19:23:53 10° SSW
NOSS 2-3 (E) 3.5 19:20:18 10° SSW 19:25:04 57° ESE 19:28:53 10° NE
TRACE 4.1 19:26:36 10° NNE 19:29:09 43° E 19:29:09 43° E
COSMOS 2455 4.2 19:24:03 10° SW 19:29:38 42° WNW 19:35:15 10° N
NOSS 2-3 (D) 3.5 19:26:05 10° SSW 19:30:55 59° ESE 19:34:45 10° NE
ARIANE 5 R/B 3.1 19:30:38 10° SSW 19:31:32 14° S 19:31:32 14° S
SL-08 R/B 3.2 19:29:57 10° NNE 19:34:47 77° ESE 19:39:32 10° S
Cosmos 2278 Rocket 2.1 19:30:38 10° NNW 19:36:17 85° ENE 19:41:05 15° SSE
Cosmos 1603 4.3 19:31:13 10° SSE 19:36:19 34° ESE 19:41:21 10° NE
Meteor 2-20 Rocket 4.2 19:31:30 10° S 19:37:13 72° E 19:42:53 10° N
CZ-2C R/B 4.4 19:39:44 16° NE 19:39:44 16° NE 19:40:43 10° NNE
Cosmos 2315 Rocket 4.5 19:32:58 11° SSE 19:38:36 37° E 19:44:18 10° NNE
Cosmos 839 Rocket 3.9 19:33:43 10° S 19:40:12 63° ESE 19:46:13 10° NNE
Cosmos 2228 3.1 19:42:16 35° SE 19:43:34 49° E 19:47:40 10° NNE
ARIANE 5 R/B 2.7 19:37:23 10° WSW 19:43:35 31° SSW 19:44:11 28° S
Meteor 1-27 4.2 19:39:51 10° S 19:45:22 59° E 19:50:50 10° NNE
Cosmos 2058 2.8 19:43:29 10° N 19:47:28 81° W 19:49:40 25° S
MOS 1 Rocket 3.4 19:46:45 30° SSE 19:49:12 64° ENE 19:54:22 10° N
YAOGAN 1 4.2 19:45:46 10° SSW 19:49:36 33° W 19:53:25 10° NW
CZ-4B R/B 4.5 19:47:56 16° S 19:50:34 47° WSW 19:53:59 10° NNW
Nadezhda 2 Rocket 4.5 19:44:38 10° N 19:50:57 69° E 19:55:38 19° SSE
GENESIS II 4.3 19:49:51 10° SW 19:52:35 47° WNW 19:55:20 10° N
Cosmos 883 Rocket 4.5 19:48:24 10° S 19:54:36 60° E 20:00:42 10° NNE
SL-4 R/B 2.6 19:52:13 10° NNW 19:54:43 35° NNE 19:54:43 35° NNE
ARIANE 5 R/B 3.9 19:53:15 10° WSW 19:56:32 41° SSE 19:58:15 35° SE
Ariane H10-3 3.8 19:49:34 10° W 19:58:17 25° SSW 19:59:31 22° S
Cosmos 1943 3.8 19:54:55 10° SSW 20:00:22 55° WNW 20:05:50 10° N
Ariane H10-3 3.9 20:08:21 10° WSW 20:08:32 12° WSW 20:08:32 12° WSW
Meteor 2-3 Rocket 3.7 20:09:37 10° N 20:15:09 62° ENE 20:15:09 62° ENE
Cosmos 1486 Rocket 4.0 20:10:21 10° NNW 20:15:34 79° WSW 20:16:26 62° S
CBERS 1 LM4 rocket 4.3 20:18:16 74° N 20:18:16 74° N 20:22:42 10° N
Resurs 01 Rocket 2.0 20:21:45 62° WNW 20:21:45 62° WNW 20:25:44 10° NNW
Ariane H10+ 2.5 20:09:56 10° W 20:21:48 87° S 20:22:49 67° E
Cosmos 841 Rocket 3.8 20:19:24 10° SSW 20:24:27 63° WNW 20:29:30 10° N
Cosmos 2285 Rocket 4.1 20:22:47 10° N 20:28:27 63° NE 20:28:27 63° NE
Cosmos 1943 Rocket 4.1 20:33:56 10° NW 20:38:15 24° WSW 20:41:08 16° SW
Cosmos 2369 Rocket 4.4 20:36:32 10° NNE 20:37:22 14° NNE 20:37:22 14° NNE
CZ-4 R/B 4.0 20:48:42 17° NW 20:48:42 17° NW 20:49:44 10° NNW
ATLAS 2A CENTAUR R/B 4.0 20:38:52 10° WSW 20:55:08 45° NW 20:56:35 39° N
CZ-3 Stage 3 3.1 20:46:58 10° NW 20:57:58 56° NNW 20:57:58 56° NNW
ARIANE 5 R/B 4.2 13:45:13 10° W 21:15:29 58° SSW 21:15:38 58° SSW
Centaur D-1AR AC-48 4.0 21:29:13 10° W 21:34:41 56° N 22:09:00 10° ENE
Centaur D AC-25 4.4 21:10:35 10° WNW 21:37:13 67° WNW 21:37:13 67° WNW
